Location: Bratislava
(0.0000°N, 17.1167°E)
Time: 03:34:50
(UTC+01:00)

IRS-1C Rocket - Pass Details

Date: 24 January 2021
Orbit: 801 x 805 km, 99.0° (Epoch: 06 March)

Event Time Altitude Azimuth Distance (km) Brightness Sun altitude
Rises 18:31:39 0° 160° (SSE) 3,311 7.3 -6.6°
Reaches altitude 10° 18:34:01 10° 156° (SSE) 2,378 6.5 -7.2°
Maximum altitude 18:39:10 58° 77° (ENE) 930 4.1 -8.4°
Drops below altitude 10° 18:44:18 10° 359° (N) 2,366 6.4 -9.6°
Sets 18:46:39 0° 355° (N) 3,293 7.1 -10.1°
